KY4GW Weather Reports


time (UTC)temp
C
wind
direction
speed
KPH
gust
KPH
rain 1hr
cm
rain 24hr
cm
rain mn
cm
humidity
%
barometer
mb
20260903025750 23 126 0.0 0.0 0.00 0.00 0.00 90 1020.1
20260903025245 23 126 0.0 0.0 0.00 0.00 0.00 90 1020.1
20260903024740 23 126 0.0 0.0 0.00 0.00 0.00 90 1020.1
20260903024239 23 126 0.0 0.0 0.00 0.00 0.00 90 1020.1
20260903023735 23 126 0.0 0.0 0.00 0.00 0.00 89 1020.1
20260903023231 23 126 0.0 0.0 0.00 0.00 0.00 89 1020.1
20260903022731 23 126 0.0 0.0 0.00 0.00 0.00 89 1020.1
20260903022229 23 126 0.0 0.0 0.00 0.00 0.00 88 1020.1
20260903021724 23 126 0.0 0.0 0.00 0.00 0.00 88 1020.1
20260903021220 23 126 0.0 0.0 0.00 0.00 0.00 87 1020.1
20260903020719 23 126 0.0 0.0 0.00 0.00 0.00 87 1020.1
20260903020214 23 126 0.0 0.0 0.00 0.00 0.00 85 1020.1
20260903015710 24 126 0.0 0.0 0.00 0.00 0.00 85 1020.1
20260903015205 24 126 0.0 0.0 0.00 0.00 0.00 85 1020.1
20260903014701 24 126 0.0 0.0 0.00 0.00 0.00 85 1020.1
20260903014200 24 126 0.0 0.0 0.00 0.00 0.00 84 1020.1
20260903013655 24 126 0.0 0.0 0.00 0.00 0.00 82 1020.1
20260903013154 24 126 0.0 0.0 0.00 0.00 0.00 83 1020.1
20260903012653 25 126 0.0 0.0 0.00 0.00 0.00 84 1019.6
20260903012152 25 126 0.0 0.0 0.00 0.00 0.00 83 1019.6
20260903011647 25 126 0.0 0.0 0.00 0.00 0.00 84 1019.6
20260903011146 25 126 0.0 0.0 0.00 0.00 0.00 85 1020.1
20260903010642 25 126 0.0 0.0 0.00 0.00 0.00 86 1020.1
20260903010140 25 126 0.0 0.0 0.00 0.00 0.00 85 1020.1
20260903005635 25 126 0.0 0.0 0.00 0.00 0.00 84 1020.1
20260903005131 25 126 0.0 0.0 0.00 0.00 0.00 83 1020.1
20260903004631 26 126 0.0 0.0 0.00 0.00 0.00 82 1020.1
20260903004121 26 126 0.0 0.0 0.00 0.00 0.00 77 1019.6
20260903003616 26 126 0.0 0.0 0.00 0.00 0.00 77 1019.6
20260903003111 26 126 0.0 0.0 0.00 0.00 0.00 77 1019.6
20260903002606 26 126 0.0 0.0 0.00 0.00 0.00 76 1019.6
20260903002100 27 126 0.0 0.0 0.00 0.00 0.00 78 1019.6
20260903001555 27 126 0.0 0.0 0.00 0.00 0.00 75 1019.6
20260903001055 27 126 0.0 0.0 0.00 0.00 0.00 75 1019.6
20260903000551 27 126 0.0 0.0 0.00 0.00 0.00 74 1019.6
20260903000044 28 126 0.0 0.0 0.00 0.00 0.00 71 1019.6
20260902235543 28 126 0.0 0.0 0.00 0.00 0.00 70 1019.6
20260902235039 28 126 0.0 0.0 0.00 0.00 0.00 67 1019.6
20260902234538 28 126 0.0 0.0 0.00 0.00 0.00 67 1019.6
20260902234037 29 126 0.0 0.0 0.00 0.00 0.00 66 1019.6
20260902233532 29 126 0.0 0.0 0.00 0.00 0.00 65 1019.6
20260902233026 30 126 0.0 0.0 0.00 0.00 0.00 62 1019.6
20260902232526 30 126 0.0 0.0 0.00 0.00 0.00 63 1019.6
20260902232020 30 126 0.0 0.0 0.00 0.00 0.00 62 1019.6
20260902231515 30 126 0.0 0.0 0.00 0.00 0.00 62 1019.6
20260902231010 30 126 0.0 0.0 0.00 0.00 0.00 61 1019.6
20260902230509 30 126 0.0 0.0 0.00 0.00 0.00 61 1019.6
20260902230008 31 126 0.0 0.0 0.00 0.00 0.00 60 1019.6
20260902225504 31 126 0.0 0.0 0.00 0.00 0.00 60 1019.6
20260902224958 31 126 0.0 0.0 0.00 0.00 0.00 59 1019.6
20260902224457 31 126 0.0 0.0 0.00 0.00 0.00 59 1019.6
20260902223954 31 126 0.0 0.0 0.00 0.00 0.00 60 1019.6
20260902223449 31 126 0.0 0.0 0.00 0.00 0.00 60 1019.6
20260902222949 31 126 0.0 0.0 0.00 0.00 0.00 56 1020.1
20260902222447 31 126 0.0 0.0 0.00 0.00 0.00 57 1020.1
20260902221947 32 126 0.0 0.0 0.00 0.00 0.00 55 1020.1
20260902221446 32 126 0.0 0.0 0.00 0.00 0.00 56 1020.1
20260902220942 32 126 0.0 0.0 0.00 0.00 0.00 56 1020.1
20260902220441 32 126 0.0 0.0 0.00 0.00 0.00 55 1019.6
20260902215936 32 126 0.0 0.0 0.00 0.00 0.00 57 1019.6
20260902215432 32 126 0.0 0.0 0.00 0.00 0.00 59 1019.6
20260902214928 32 126 0.0 0.0 0.00 0.00 0.00 55 1019.6
20260902214426 32 126 0.0 0.0 0.00 0.00 0.00 56 1020.1
20260902213921 32 126 0.0 0.0 0.00 0.00 0.00 57 1020.1
20260902213417 32 126 0.0 0.0 0.00 0.00 0.00 57 1020.1
20260902212915 32 126 0.0 0.0 0.00 0.00 0.00 54 1020.1
20260902212412 33 126 0.0 0.0 0.00 0.00 0.00 55 1020.1
20260902211908 33 126 0.0 0.0 0.00 0.00 0.00 59 1020.1
20260902211404 33 126 3.2 3.2 0.00 0.00 0.00 50 1020.1
20260902210859 34 216 0.0 0.0 0.00 0.00 0.00 49 1020.1
20260902210358 35 198 0.0 0.0 0.00 0.00 0.00 51 1020.1
20260902205857 35 216 0.0 0.0 0.00 0.00 0.00 50 1020.1
20260902205351 35 150 0.0 0.0 0.00 0.00 0.00 50 1020.1
20260902204847 35 278 0.0 0.0 0.00 0.00 0.00 51 1020.1
20260902204341 34 168 0.0 0.0 0.00 0.00 0.00 52 1020.4
20260902203838 35 234 1.6 1.6 0.00 0.00 0.00 52 1020.4
20260902203338 35 162 0.0 0.0 0.00 0.00 0.00 52 1020.4
20260902202832 35 114 0.0 0.0 0.00 0.00 0.00 51 1020.4
20260902202328 34 246 0.0 0.0 0.00 0.00 0.00 53 1020.4
20260902201825 33 30 0.0 0.0 0.00 0.00 0.00 53 1020.4
20260902201324 33 264 0.0 0.0 0.00 0.00 0.00 53 1020.4
20260902200820 34 156 3.2 3.2 0.00 0.00 0.00 51 1020.4
20260902200314 33 156 0.0 0.0 0.00 0.00 0.00 49 1020.4
20260902195810 34 12 4.8 4.8 0.00 0.00 0.00 53 1020.7
20260902195309 34 12 4.8 4.8 0.00 0.00 0.00 53 1020.7
20260902194804 34 210 0.0 0.0 0.00 0.00 0.00 54 1020.7
20260902194259 34 114 0.0 0.0 0.00 0.00 0.00 54 1021.1
20260902193754 -17 0.0 0.0 0.00 0.00 0.00 1021.1
20260902193250 34 288 0.0 0.0 0.00 0.00 0.00 57 1021.1
20260902192748 34 288 0.0 0.0 0.00 0.00 0.00 57 1021.1
20260902192248 34 288 0.0 0.0 0.00 0.00 0.00 57 1021.1
20260902191747 34 264 0.0 0.0 0.00 0.00 0.00 54 1021.1
20260902191242 33 78 1.6 1.6 0.00 0.00 0.00 56 1021.1
20260902190738 33 156 1.6 1.6 0.00 0.00 0.00 52 1021.1
20260902190237 33 168 0.0 0.0 0.00 0.00 0.00 53 1021.1
20260902185733 33 246 0.0 0.0 0.00 0.00 0.00 57 1021.4
20260902185229 33 264 0.0 0.0 0.00 0.00 0.00 52 1021.4
20260902184724 33 198 0.0 0.0 0.00 0.00 0.00 55 1021.4
20260902184220 34 306 0.0 0.0 0.00 0.00 0.00 54 1021.4
20260902183716 33 246 0.0 0.0 0.00 0.00 0.00 55 1021.4
20260902183212 33 156 0.0 0.0 0.00 0.00 0.00 55 1021.4
20260902182708 33 198 0.0 0.0 0.00 0.00 0.00 54 1021.4
20260902182204 33 282 0.0 0.0 0.00 0.00 0.00 58 1021.4
20260902181659 33 186 0.0 0.0 0.00 0.00 0.00 55 1021.4
20260902181154 33 330 3.2 3.2 0.00 0.00 0.00 54 1021.4
20260902180654 33 258 0.0 0.0 0.00 0.00 0.00 55 1021.4
20260902180149 33 114 0.0 0.0 0.00 0.00 0.00 54 1021.4
20260902175649 33 204 3.2 3.2 0.00 0.00 0.00 54 1021.4
20260902175145 34 96 3.2 3.2 0.00 0.00 0.00 53 1021.4
20260902174641 33 114 0.0 0.0 0.00 0.00 0.00 57 1021.4
20260902174137 34 26 1.6 1.6 0.00 0.00 0.00 55 1021.8
20260902173632 33 162 0.0 0.0 0.00 0.00 0.00 55 1021.8
20260902173127 33 156 1.6 1.6 0.00 0.00 0.00 57 1021.8
20260902172621 33 294 1.6 1.6 0.00 0.00 0.00 57 1022.1
20260902172121 33 126 3.2 3.2 0.00 0.00 0.00 57 1022.1
20260902171616 33 270 3.2 3.2 0.00 0.00 0.00 57 1022.1
20260902171112 32 324 0.0 0.0 0.00 0.00 0.00 54 1022.4
20260902170608 32 289 6.4 6.4 0.00 0.00 0.00 58 1022.4
20260902170103 33 198 0.0 0.0 0.00 0.00 0.00 60 1022.4
20260902165602 33 168 3.2 3.2 0.00 0.00 0.00 56 1022.4
20260902165057 33 198 3.2 3.2 0.00 0.00 0.00 58 1022.4
20260902164553 33 78 0.0 0.0 0.00 0.00 0.00 57 1022.4
20260902164051 32 198 0.0 0.0 0.00 0.00 0.00 58 1022.4
20260902163547 32 300 4.8 4.8 0.00 0.00 0.00 58 1022.4
20260902163045 33 264 3.2 3.2 0.00 0.00 0.00 58 1022.4
20260902162539 33 318 1.6 1.6 0.00 0.00 0.00 61 1022.4
20260902162035 33 48 0.0 0.0 0.00 0.00 0.00 60 1022.4
20260902161535 33 216 0.0 0.0 0.00 0.00 0.00 57 1022.4
20260902161030 33 174 0.0 0.0 0.00 0.00 0.00 61 1022.4
20260902160526 33 222 0.0 0.0 0.00 0.00 0.00 59 1022.4
20260902160021 32 138 0.0 0.0 0.00 0.00 0.00 60 1022.8
20260902155514 32 168 0.0 0.0 0.00 0.00 0.00 61 1022.8
20260902155013 32 174 3.2 3.2 0.00 0.00 0.00 63 1022.8
20260902154509 32 270 0.0 0.0 0.00 0.00 0.00 63 1022.8
20260902154003 31 294 0.0 0.0 0.00 0.00 0.00 64 1022.8
20260902153502 31 330 3.2 3.2 0.00 0.00 0.00 61 1022.8
20260902152957 31 216 0.0 0.0 0.00 0.00 0.00 64 1022.8
20260902152454 31 192 0.0 0.0 0.00 0.00 0.00 62 1022.8
20260902151949 31 54 3.2 3.2 0.00 0.00 0.00 64 1022.8
20260902151445 31 277 0.0 0.0 0.00 0.00 0.00 63 1022.8
20260902150944 31 234 3.2 3.2 0.00 0.00 0.00 63 1022.8
20260902150441 32 222 0.0 0.0 0.00 0.00 0.00 59 1022.4
20260902145940 32 222 0.0 0.0 0.00 0.00 0.00 59 1022.4
20260902145436 31 222 0.0 0.0 0.00 0.00 0.00 63 1022.4
20260902144930 31 222 1.6 1.6 0.00 0.00 0.00 62 1022.4
20260902144426 31 222 0.0 0.0 0.00 0.00 0.00 62 1022.8
20260902143926 32 222 0.0 0.0 0.00 0.00 0.00 64 1022.8
20260902143421 31 222 0.0 0.0 0.00 0.00 0.00 64 1022.8
20260902142916 31 222 0.0 0.0 0.00 0.00 0.00 63 1022.4
20260902142413 31 222 0.0 0.0 0.00 0.00 0.00 63 1022.4
20260902141908 31 222 0.0 0.0 0.00 0.00 0.00 62 1022.4
20260902141403 32 222 0.0 0.0 0.00 0.00 0.00 60 1022.8
20260902140902 31 222 0.0 0.0 0.00 0.00 0.00 61 1022.8
20260902140358 31 222 0.0 0.0 0.00 0.00 0.00 66 1022.8
20260902135852 32 222 0.0 0.0 0.00 0.00 0.00 62 1022.4
20260902135348 31 222 0.0 0.0 0.00 0.00 0.00 62 1022.4
20260902134846 31 222 0.0 0.0 0.00 0.00 0.00 67 1022.4
20260902134342 31 222 0.0 0.0 0.00 0.00 0.00 67 1022.8
20260902133837 31 222 0.0 0.0 0.00 0.00 0.00 63 1022.8
20260902133337 31 222 0.0 0.0 0.00 0.00 0.00 63 1022.8
20260902132832 31 222 0.0 0.0 0.00 0.00 0.00 64 1022.8
20260902132327 31 222 0.0 0.0 0.00 0.00 0.00 63 1022.8
20260902131823 31 222 0.0 0.0 0.00 0.00 0.00 65 1022.4
20260902131320 30 222 0.0 0.0 0.00 0.00 0.00 66 1022.4
20260902130819 31 222 0.0 0.0 0.00 0.00 0.00 65 1022.4
20260902130315 31 222 0.0 0.0 0.00 0.00 0.00 65 1022.4
20260902125810 30 222 0.0 0.0 0.00 0.00 0.00 68 1022.4
20260902125306 28 222 0.0 0.0 0.00 0.00 0.00 71 1022.4
20260902124802 28 222 0.0 0.0 0.00 0.00 0.00 71 1022.4
20260902124257 -17 0.0 0.0 0.00 0.00 0.00 1022.4
20260902123752 26 222 0.0 0.0 0.00 0.00 0.00 76 1022.4
20260902123248 26 222 0.0 0.0 0.00 0.00 0.00 76 1022.4
20260902122747 26 222 0.0 0.0 0.00 0.00 0.00 76 1022.4
20260902122243 26 222 0.0 0.0 0.00 0.00 0.00 77 1022.4
20260902121743 24 222 0.0 0.0 0.00 0.00 0.00 80 1022.4
20260902121238 24 222 0.0 0.0 0.00 0.00 0.00 80 1022.4
20260902120733 23 222 0.0 0.0 0.00 0.00 0.00 83 1022.4
20260902120229 22 222 0.0 0.0 0.00 0.00 0.00 91 1022.1
20260902115724 21 222 0.0 0.0 0.00 0.00 0.00 92 1022.1
20260902115220 21 222 0.0 0.0 0.00 0.00 0.00 94 1022.1
20260902114716 21 222 0.0 0.0 0.00 0.00 0.00 96 1022.1
20260902114211 21 222 0.0 0.0 0.00 0.00 0.00 96 1022.1
20260902113712 20 222 0.0 0.0 0.00 0.00 0.00 96 1022.1
20260902113207 20 222 0.0 0.0 0.00 0.00 0.00 96 1022.1
20260902112706 20 222 0.0 0.0 0.00 0.00 0.00 96 1022.1
20260902112204 20 222 0.0 0.0 0.00 0.00 0.00 96 1022.1
20260902111659 20 222 0.0 0.0 0.00 0.00 0.00 96 1022.1
20260902111155 20 222 0.0 0.0 0.00 0.00 0.00 96 1021.8
20260902110650 20 222 0.0 0.0 0.00 0.00 0.00 96 1021.8
20260902110147 20 222 0.0 0.0 0.00 0.00 0.00 96 1021.8
20260902105646 20 222 0.0 0.0 0.00 0.00 0.00 96 1021.4
20260902105141 20 222 0.0 0.0 0.00 0.00 0.00 96 1021.4
20260902104637 20 222 0.0 0.0 0.00 0.00 0.00 96 1021.4
20260902104132 20 222 0.0 0.0 0.00 0.00 0.00 96 1021.4
20260902103631 20 222 0.0 0.0 0.00 0.00 0.00 96 1021.4
20260902103127 20 222 0.0 0.0 0.00 0.00 0.00 96 1021.4
20260902102623 20 222 0.0 0.0 0.00 0.00 0.00 96 1021.4
20260902102120 20 222 0.0 0.0 0.00 0.00 0.00 96 1021.4
20260902101615 20 222 0.0 0.0 0.00 0.00 0.00 96 1021.4
20260902101115 20 222 0.0 0.0 0.00 0.00 0.00 96 1021.4
20260902100609 20 222 0.0 0.0 0.00 0.00 0.00 96 1021.4
20260902100104 20 222 0.0 0.0 0.00 0.00 0.00 96 1021.4
20260902095603 20 222 0.0 0.0 0.00 0.00 0.00 96 1021.4
20260902095102 20 222 0.0 0.0 0.00 0.00 0.00 96 1021.4
20260902094558 20 222 0.0 0.0 0.00 0.00 0.00 96 1021.4
20260902094054 20 222 0.0 0.0 0.00 0.00 0.00 96 1021.4
20260902093553 20 222 0.0 0.0 0.00 0.00 0.00 96 1021.4
20260902093048 20 222 0.0 0.0 0.00 0.00 0.00 96 1021.1
20260902092537 20 222 0.0 0.0 0.00 0.00 0.00 96 1021.1
20260902092032 20 222 0.0 0.0 0.00 0.00 0.00 96 1021.1
20260902091528 20 222 0.0 0.0 0.00 0.00 0.00 96 1021.1
20260902091024 20 222 0.0 0.0 0.00 0.00 0.00 96 1021.1
20260902090520 20 222 0.0 0.0 0.00 0.00 0.00 96 1021.1
20260902090019 20 222 0.0 0.0 0.00 0.00 0.00 96 1021.1
20260902085519 20 222 0.0 0.0 0.00 0.00 0.00 96 1021.1
20260902085014 21 222 0.0 0.0 0.00 0.00 0.00 96 1021.1
20260902084510 21 222 0.0 0.0 0.00 0.00 0.00 96 1021.1
20260902084005 21 222 0.0 0.0 0.00 0.00 0.00 96 1021.1
20260902083501 21 222 0.0 0.0 0.00 0.00 0.00 96 1021.1
20260902082955 21 222 0.0 0.0 0.00 0.00 0.00 96 1020.7
20260902082450 21 222 0.0 0.0 0.00 0.00 0.00 96 1020.7
20260902081947 21 222 0.0 0.0 0.00 0.00 0.00 96 1020.7
20260902081443 21 222 0.0 0.0 0.00 0.00 0.00 96 1020.7
20260902080938 21 222 0.0 0.0 0.00 0.00 0.00 96 1020.7
20260902080434 21 222 0.0 0.0 0.00 0.00 0.00 96 1020.7
20260902075933 21 222 0.0 0.0 0.00 0.00 0.00 96 1020.7
20260902075430 21 222 0.0 0.0 0.00 0.00 0.00 96 1020.7
20260902074925 21 222 0.0 0.0 0.00 0.00 0.00 96 1020.7
20260902074420 21 222 0.0 0.0 0.00 0.00 0.00 96 1020.7
20260902073915 21 222 0.0 0.0 0.00 0.00 0.00 96 1020.7
20260902073411 21 222 0.0 0.0 0.00 0.00 0.00 96 1020.7
20260902072907 21 222 0.0 0.0 0.00 0.00 0.00 96 1020.7
20260902072403 21 222 0.0 0.0 0.00 0.00 0.00 96 1020.7
20260902071859 21 222 0.0 0.0 0.00 0.00 0.00 96 1020.7
20260902071358 21 222 0.0 0.0 0.00 0.00 0.00 96 1020.7
20260902070855 21 222 0.0 0.0 0.00 0.00 0.00 96 1020.7
20260902070350 21 222 0.0 0.0 0.00 0.00 0.00 96 1020.7
20260902065848 21 222 0.0 0.0 0.00 0.00 0.00 96 1021.1
20260902065344 21 222 0.0 0.0 0.00 0.00 0.00 96 1021.1
20260902064839 21 222 0.0 0.0 0.00 0.00 0.00 96 1021.1
20260902064335 21 222 0.0 0.0 0.00 0.00 0.00 96 1020.7
20260902063830 21 222 0.0 0.0 0.00 0.00 0.00 96 1020.7
20260902063331 21 222 0.0 0.0 0.00 0.00 0.00 96 1020.7
20260902062825 21 222 0.0 0.0 0.00 0.00 0.00 96 1021.1
20260902062320 21 222 0.0 0.0 0.00 0.00 0.00 96 1021.1
20260902061819 21 222 0.0 0.0 0.00 0.00 0.00 95 1021.1
20260902061315 21 222 0.0 0.0 0.00 0.00 0.00 95 1021.1
20260902060811 21 222 0.0 0.0 0.00 0.00 0.00 95 1021.1
20260902060307 21 222 0.0 0.0 0.00 0.00 0.00 95 1021.1
20260902055802 21 222 0.0 0.0 0.00 0.00 0.00 95 1021.1
20260902055259 21 222 0.0 0.0 0.00 0.00 0.00 95 1021.1
20260902054758 21 222 0.0 0.0 0.00 0.00 0.00 95 1021.1
20260902054254 21 222 0.0 0.0 0.00 0.00 0.00 95 1021.1
20260902053749 21 222 0.0 0.0 0.00 0.00 0.00 95 1021.1
20260902053248 21 222 0.0 0.0 0.00 0.00 0.00 95 1021.1
20260902052743 22 222 0.0 0.0 0.00 0.00 0.00 95 1021.1
20260902052238 22 222 0.0 0.0 0.00 0.00 0.00 95 1021.1
20260902051738 22 222 0.0 0.0 0.00 0.00 0.00 95 1021.1
20260902051232 22 222 0.0 0.0 0.00 0.00 0.00 95 1021.1
20260902050727 22 222 0.0 0.0 0.00 0.00 0.00 95 1021.1
20260902050222 22 222 0.0 0.0 0.00 0.00 0.00 95 1021.1
20260902045722 22 222 0.0 0.0 0.00 0.00 0.00 95 1021.1
20260902045219 22 222 0.0 0.0 0.00 0.00 0.00 95 1021.1
20260902044714 22 222 0.0 0.0 0.00 0.00 0.00 95 1021.1
20260902044210 22 222 0.0 0.0 0.00 0.00 0.00 95 1021.1
20260902043704 22 222 0.0 0.0 0.00 0.00 0.00 95 1021.1
20260902043200 22 222 0.0 0.0 0.00 0.00 0.00 95 1021.1
20260902042659 22 222 0.0 0.0 0.00 0.00 0.00 95 1020.7
20260902042154 22 222 0.0 0.0 0.00 0.00 0.00 95 1020.7
20260902041654 22 222 0.0 0.0 0.00 0.00 0.00 94 1020.7
20260902041149 22 222 0.0 0.0 0.00 0.00 0.00 94 1021.1
20260902040648 22 222 0.0 0.0 0.00 0.00 0.00 94 1021.1
20260902040144 22 222 0.0 0.0 0.00 0.00 0.00 94 1020.7
20260902035642 22 222 0.0 0.0 0.00 0.00 0.00 94 1020.7
20260902035138 22 222 0.0 0.0 0.00 0.00 0.00 94 1020.7
20260902034636 22 222 0.0 0.0 0.00 0.00 0.00 94 1021.1
20260902034131 22 222 0.0 0.0 0.00 0.00 0.00 94 1021.1
20260902033630 22 222 0.0 0.0 0.00 0.00 0.00 94 1021.1
20260902033125 22 222 0.0 0.0 0.00 0.00 0.00 94 1021.1
20260902032623 22 222 0.0 0.0 0.00 0.00 0.00 94 1021.1
20260902032118 22 222 0.0 0.0 0.00 0.00 0.00 94 1021.1
20260902031613 22 222 0.0 0.0 0.00 0.00 0.00 93 1021.1
20260902031109 22 222 0.0 0.0 0.00 0.00 0.00 93 1021.1
20260902030604 22 222 0.0 0.0 0.00 0.00 0.00 93 1021.1
20260902030104 23 222 0.0 0.0 0.00 0.00 0.00 93 1021.1